This is the latest recevied weather packets stored in our database for station/object SP6PGH-13. If no packets are shown the sender has not sent any weather packets the latest 10 day(s).
| Time | Temp. | Humidity | Pressure | Rain* | Wind** | Luminosity | Snow |
|---|---|---|---|---|---|---|---|
| 1777739422 | 23.89° C | 28% | 1005.4 hPa | - | - | 95 W/m² | - |
| 1777738521 | 25° C | 28% | 1005.6 hPa | - | - | 131 W/m² | - |
| 1777737620 | 25.56° C | 27% | 1005.8 hPa | - | - | 168 W/m² | - |
| 1777736719 | 24.44° C | 28% | 1006 hPa | - | - | 208 W/m² | - |
| 1777735818 | 25° C | 26% | 1006.1 hPa | - | - | 252 W/m² | - |
| 1777734917 | 25.56° C | 27% | 1006.2 hPa | - | - | 294 W/m² | - |
| 1777734017 | 25.56° C | 26% | 1006.4 hPa | - | - | 337 W/m² | - |
| 1777733116 | 25° C | 26% | 1006.5 hPa | - | - | 376 W/m² | - |
| 1777732215 | 24.44° C | 27% | 1006.8 hPa | - | - | 424 W/m² | - |
| 1777731314 | 25° C | 26% | 1006.9 hPa | - | - | 470 W/m² | - |
| 1777730413 | 24.44° C | 27% | 1007 hPa | - | - | 508 W/m² | - |
| 1777729512 | 25° C | 26% | 1007.1 hPa | - | - | 537 W/m² | - |
| 1777728611 | 25° C | 26% | 1007.3 hPa | - | - | 578 W/m² | - |
| 1777727710 | 24.44° C | 26% | 1007.5 hPa | - | - | 607 W/m² | - |
| 1777726809 | 24.44° C | 26% | 1007.8 hPa | - | - | 643 W/m² | - |
| 1777725008 | 24.44° C | 28% | 1008.3 hPa | - | - | 685 W/m² | - |
| 1777724107 | 23.33° C | 28% | 1008.5 hPa | - | - | 695 W/m² | - |
| 1777723206 | 24.44° C | 28% | 1008.7 hPa | - | - | 711 W/m² | - |
| 1777722304 | 23.89° C | 28% | 1008.8 hPa | - | - | 721 W/m² | - |
| 1777721404 | 23.89° C | 28% | 1009 hPa | - | - | 724 W/m² | - |
| 1777720503 | 23.33° C | 29% | 1009.2 hPa | - | - | 731 W/m² | - |
| 1777719602 | 22.78° C | 30% | 1009.3 hPa | - | - | 729 W/m² | - |
| 1777718701 | 23.33° C | 28% | 1009.6 hPa | - | - | 726 W/m² | - |
| 1777717799 | 23.33° C | 29% | 1009.7 hPa | - | - | 730 W/m² | - |
| 1777716898 | 23.33° C | 29% | 1009.9 hPa | - | - | 716 W/m² | - |
* Rain since midnight (hover to see other rain measurements)
** Current wind speed in m/s (hover to see current wind gust speed)